SCP
0 0 0 0 0 0 0 0 0 0 0 0 0 0 0 0 0 0 0 0 0 0 0 0 0 0 0 0 0 0 0 0 0 0 0 0 0 0 0 0 0 0 0
0 0 0 0 0 0 0 0 0 0 0 0 0 0 0 0 0 0 0 0 0 0 0 0 0 0 0 0 0 0 0 0 0 0 0 0 0 0 0 0 0 0 0
0 0 0 0 0 0 0 0 0 0 0 0 0 0 0 0 0 0 0 0 0 0 0 0 0 0 0 0 0 0 0 0 0 0 0 0 0 0 0 0 0 0 0
0 0 0 0 0 0 0 0 0 0 0 0 0 0 0 0 0 0 0 0 0 0 0 0 0 0 0 0 0 0 0 0 0 0 0 0 0 0 0 0 0 0 0
0 0 0 0 0 0 0 0 0 0 0 0 0 0 0 0 0 0 0 0 0 0 0 0 0 0 0 0 0 0 0 0 0 0 0 0 0 0 0 0 0 0 0
0 0 0 0 0 0 0 0 0 0 0 0 0 0 0 0 0 0 0 0 0 0 0 0 0 0 0 0 0 0 0 0 0 0 0 0 0 0 0 0 0 0 0
0 0 0 0 0 0 0 0 0 0 0 0 0 0 0 0 0 0 0 0 0 0 0 0 0 0 0 0 0 0 0 0 0 0 0 0 0 0 0 0 0 0 0
0 0 0 0 0 0 0 0 0 0 0 0 0 0 0 0 0 0 0 0 0 0 0 0 0 0 -0 -0 -0 0 0 0 0 0 0 0 0 0 0 0 0 0 0
0 0 0 0 0 0 0 0 0 0 0 0 0 0 0 0 0 0 0 0 0 0 0 0 0 0 -0 -0 -0 -0 0 0 0 0 0 0 0 0 0 0 0 0 0
0 0 0 0 0 0 0 0 0 0 0 0 0 0 0 0 0 0 0 0 0 0 0 0 0 0 0 -0 -0 -0 0 0 0 0 0 0 0 0 0 0 0 0 0
0 0 0 0 0 0 0 0 0 0 0 0 0 0 0 0 0 0 0 0 0 0 0 0 0 0 0 0 -0 -0 0 0 0 0 0 0 0 0 0 0 0 0 0
0 0 0 0 0 0 0 0 0 0 0 0 0 0 0 0 0 0 0 0 0 0 0 0 0 0 0 0 0 0 0 0 0 0 0 0 0 0 0 0 0 0 0
0 0 0 0 0 0 0 0 0 0 0 0 0 0 0 0 0 0 0 0 0 0 0 0 0 0 0 0 0 0 0 0 0 0 0 0 0 1 1 0 0 0 0
0 0 0 0 0 0 0 0 0 0 0 0 0 0 0 0 0 0 0 0 0 0 0 0 0 0 0 0 0 0 0 0 0 0 0 0 0 1 1 0 0 0 0
1 1 1 1 0 0 0 0 0 0 0 0 0 0 0 0 0 0 0 0 0 0 0 0 0 0 0 0 0 0 0 0 0 0 0 0 0 1 0 0 1 0 0
1 1 1 1 0 0 0 0 0 0 0 0 0 0 0 0 0 0 0 0 0 0 0 0 0 0 0 0 0 0 0 0 0 0 0 0 0 0 0 0 1 1 1
1 1 1 1 0 0 0 0 0 0 0 0 0 0 0 0 0 0 0 0 0 0 0 0 0 0 0 0 0 0 0 0 0 0 0 0 0 0 0 0 1 1 1
1 1 0 0 0 0 0 0 0 0 0 0 0 0 0 0 0 0 0 0 0 0 0 0 0 0 0 0 0 0 0 0 0 0 0 0 0 0 0 0 1 1 1
0 0 0 0 0 0 0 0 0 0 0 0 0 0 0 0 0 0 0 0 0 0 0 0 0 0 0 0 0 0 0 0 0 0 0 0 0 0 0 0 0 1 1
0 0 0 0 0 0 0 0 0 0 0 0 0 0 0 0 0 0 0 0 0 0 0 0 0 0 0 0 0 0 0 0 0 0 0 0 0 0 0 0 0 1 1
0 0 0 0 0 0 0 0 0 0 0 0 0 0 0 0 0 0 0 0 0 0 0 0 0 0 0 0 0 0 0 0 0 0 0 0 0 0 0 0 0 0 1
0 0 0 0 0 0 0 0 0 0 0 0 0 0 0 0 0 0 0 0 0 0 0 0 0 0 0 0 0 0 0 0 0 0 0 0 0 0 0 0 0 0 0
0 0 0 0 0 0 0 0 0 0 0 0 0 0 0 0 0 0 0 0 0 0 0 0 0 0 0 0 0 0 0 0 0 0 0 0 0 0 0 0 0 0 0
0 0 0 0 0 0 0 0 0 0 0 0 0 0 0 0 0 0 0 0 0 0 0 0 0 0 0 0 0 0 0 0 0 0 0 0 0 0 0 0 0 0 0
0 0 0 0 0 0 0 0 0 0 0 0 0 0 0 0 0 0 0 0 0 0 0 0 0 0 0 0 0 0 0 0 0 0 0 0 0 0 0 0 0 0 0
0 0 0 0 0 0 0 0 0 0 0 0 0 0 0 0 0 0 0 0 0 0 0 0 0 0 0 0 0 0 0 0 0 0 0 0 0 0 0 0 0 0 0
Wind_Speed
9 10 16 18 18 18 17 17 17 17 17 17 17 17 17 17 17 16 15 15 14 13 13 13 12 13 13 13 13 13 13 14 14 15 15 15 15 15 15 16 15 12 16
13 12 17 17 18 18 17 17 16 16 16 16 16 16 16 16 15 15 14 14 13 13 12 12 12 12 12 12 12 12 12 13 14 14 14 13 14 14 14 15 14 10 16
16 12 15 17 18 17 17 16 16 16 16 16 15 15 15 15 14 14 13 13 13 12 12 11 11 11 11 11 11 11 11 12 13 13 12 6 9 14 14 15 16 16 15
15 11 13 18 18 17 17 16 16 15 15 15 15 14 14 13 13 13 12 12 12 12 12 11 11 10 10 10 10 9 9 10 10 11 6 5 7 13 14 15 15 15 15
12 9 13 19 18 17 17 16 15 15 15 14 14 13 13 13 12 12 11 11 11 11 11 11 10 10 9 9 8 8 7 7 7 7 5 5 5 12 15 15 15 15 15
11 9 13 19 18 17 16 16 15 15 14 14 13 12 12 12 11 11 10 10 10 10 10 10 10 9 8 8 7 6 5 4 5 4 6 6 5 12 15 15 15 14 14
11 8 11 18 18 17 16 16 15 15 14 13 13 12 11 11 10 10 10 10 9 9 9 9 9 8 7 6 5 4 3 3 4 5 5 5 7 13 14 15 14 14 14
13 9 10 17 17 16 16 15 15 14 14 13 13 12 11 10 10 9 9 9 9 9 9 8 8 8 7 5 4 3 2 2 4 6 6 5 10 13 14 14 14 13 13
11 9 7 9 12 15 15 15 14 14 13 12 12 11 11 10 9 9 9 9 9 9 9 9 8 8 7 5 4 2 1 1 3 3 7 5 11 14 15 14 14 13 13
8 8 7 7 7 7 8 13 14 13 12 11 11 10 10 9 9 9 8 8 9 9 9 9 9 8 7 6 5 4 3 0 2 3 4 7 14 16 16 15 14 14 14
7 6 6 6 6 6 6 10 10 11 10 9 8 9 8 4 4 5 7 9 10 10 10 10 9 9 8 7 7 6 4 1 1 2 4 10 16 17 16 16 15 14 14
8 6 5 6 6 6 6 5 3 4 4 4 3 3 3 2 2 4 6 9 10 10 10 10 10 9 6 3 5 6 2 2 2 3 5 14 17 18 17 16 16 15 15
9 8 6 6 6 5 3 4 2 2 2 3 4 3 2 2 1 2 2 3 5 7 4 5 5 3 3 3 3 3 3 2 2 2 5 14 16 17 18 17 17 16 16
8 7 6 6 5 5 4 4 3 3 2 2 3 3 2 1 1 0 1 2 2 2 2 2 2 3 4 4 4 4 4 3 2 2 4 14 16 18 18 18 18 18 17
7 6 6 6 6 5 4 3 4 3 3 3 2 2 3 2 1 1 0 0 1 1 2 2 3 4 4 3 3 4 4 4 3 3 3 12 15 16 18 19 19 19 19
6 7 6 6 6 6 4 4 3 3 3 3 2 3 3 2 1 1 0 0 0 1 2 2 3 3 3 2 2 2 3 3 3 3 3 7 14 16 17 19 20 20 20
5 6 6 7 6 6 5 4 3 3 3 2 2 3 3 3 2 2 1 1 1 0 0 1 1 1 2 2 2 3 2 3 4 4 4 4 7 14 17 18 19 19 20
5 5 6 7 7 6 4 3 3 3 3 2 2 3 3 4 3 3 2 1 1 1 1 1 1 1 1 1 2 3 3 3 4 4 4 5 5 6 12 18 19 19 20
4 5 6 6 6 5 4 3 3 3 3 2 2 2 3 3 3 3 2 1 1 2 1 1 1 1 1 1 2 3 3 3 4 4 5 6 7 7 6 12 19 20 21
5 5 6 6 5 4 4 3 3 3 2 2 2 2 3 2 3 3 2 2 2 2 1 1 0 0 1 2 3 3 3 4 3 4 6 6 6 8 8 8 8 13 20
6 6 5 5 4 3 3 2 2 1 1 1 1 2 3 3 3 3 2 2 2 1 1 1 1 1 1 0 1 2 3 3 3 4 4 4 5 7 7 7 6 6 8
6 6 6 5 4 3 2 2 2 2 1 1 1 2 1 2 2 3 3 2 2 1 2 2 2 1 1 1 1 1 3 4 3 3 2 3 4 4 5 7 6 8 7
6 7 7 5 5 4 4 3 3 3 3 3 2 1 2 1 1 1 3 2 2 2 1 1 1 2 1 1 1 2 1 2 3 3 2 2 2 3 4 4 6 7 8
6 6 6 6 5 4 4 5 5 3 2 0 0 1 2 2 1 0 1 2 1 1 1 0 1 1 1 1 1 0 2 3 2 3 4 3 3 2 3 4 5 6 7
7 7 6 6 5 4 5 5 5 3 2 1 1 3 3 3 3 2 2 2 1 1 1 0 1 0 1 1 1 1 1 1 2 2 3 4 4 3 3 3 3 4 5
6 7 6 6 5 5 5 5 5 4 3 3 3 3 2 2 3 3 3 2 1 1 1 1 0 1 1 1 1 1 1 1 1 2 3 3 3 4 3 3 3 3 4
Wind_Direction
150 154 145 138 134 130 127 124 120 118 115 113 111 110 109 109 109 110 111 112 112 111 108 105 104 103 102 104 106 107 110 113 114 115 115 117 118 118 117 114 111 109 111
147 151 145 139 136 133 130 128 126 123 121 119 117 116 115 114 114 114 114 114 114 113 112 110 108 107 107 107 108 110 113 115 116 115 114 117 120 120 117 116 114 117 116
141 145 143 140 138 135 133 131 130 128 127 125 123 122 122 122 122 121 120 118 117 116 115 114 113 112 112 112 111 113 115 117 117 115 111 109 117 120 120 119 120 119 118
139 140 142 141 139 137 136 135 134 133 132 131 130 130 130 129 127 127 125 124 123 121 120 120 119 118 117 116 115 115 117 120 123 121 111 113 120 124 125 124 124 123 122
135 136 144 142 141 141 140 138 137 136 136 137 136 135 135 134 133 131 131 131 129 127 125 124 124 123 123 121 118 117 118 122 126 126 124 118 118 129 130 130 129 127 126
133 135 143 141 141 142 142 140 139 139 140 141 140 139 139 139 139 139 137 135 133 131 130 130 131 131 130 127 122 117 113 112 112 118 130 131 131 136 135 135 135 132 130
134 134 141 142 143 143 143 143 143 143 143 144 144 145 146 145 144 143 144 142 141 141 139 137 137 137 137 136 130 117 92 84 118 132 140 142 145 142 141 140 139 137 136
137 135 141 144 145 145 145 146 146 146 148 149 150 151 152 152 151 150 151 152 152 151 151 149 147 147 149 150 148 135 101 78 111 141 149 153 152 147 147 145 144 144 142
134 135 136 143 146 149 150 150 150 152 153 154 155 156 158 160 160 161 162 165 164 163 163 163 163 164 168 172 182 192 201 87 94 135 156 161 160 155 153 152 151 151 149
129 137 140 143 145 148 152 155 156 156 157 158 161 162 164 167 170 172 173 178 177 176 177 176 176 178 183 192 207 224 245 336 117 153 164 175 169 163 161 160 159 158 157
135 142 150 148 146 147 153 162 159 159 161 163 169 172 169 167 175 181 189 192 192 188 188 187 187 189 196 208 219 232 243 195 162 172 180 184 175 171 169 168 167 166 165
154 157 158 155 154 153 161 144 146 153 153 156 167 175 161 164 195 199 204 203 202 198 196 196 197 196 199 212 233 238 233 223 201 192 193 188 182 177 175 175 174 173 173
152 155 163 163 156 154 140 139 140 138 145 158 166 171 166 163 194 205 195 211 208 203 197 202 202 200 195 202 222 230 232 226 203 204 200 193 186 183 181 181 180 180 180
140 139 141 138 136 133 129 139 141 143 149 155 162 160 148 136 127 141 204 203 196 188 189 196 195 203 209 213 215 223 229 224 208 201 207 199 193 190 189 187 186 185 185
135 131 128 121 120 120 117 125 125 131 141 152 144 136 133 132 125 113 295 197 197 189 198 204 205 206 210 218 222 220 222 221 212 198 210 205 201 200 195 193 192 191 190
135 131 126 115 116 113 114 115 121 124 132 133 133 138 136 132 133 122 77 356 256 209 200 202 199 199 200 201 219 222 221 220 220 208 202 207 208 207 205 202 200 198 196
137 132 127 122 112 110 111 115 116 127 130 129 134 132 129 124 111 106 92 53 335 324 188 152 181 172 184 201 219 231 228 224 222 215 203 198 208 214 215 212 207 205 203
126 123 122 118 109 110 113 112 112 119 121 132 131 118 119 118 115 102 93 61 5 53 68 96 119 159 219 224 232 243 238 232 229 220 210 206 206 213 221 221 216 212 208
120 114 104 105 109 110 107 101 95 100 108 124 126 123 123 118 112 106 95 61 43 51 41 20 91 144 230 264 252 245 244 240 234 229 222 215 210 210 210 222 221 217 213
128 116 109 105 105 104 95 80 68 68 74 101 123 132 130 121 115 111 100 80 67 58 24 4 0 221 220 244 266 270 256 247 236 228 228 223 215 214 213 219 221 222 219
131 124 117 108 105 97 86 90 91 86 72 62 89 110 121 122 117 114 106 88 74 70 33 6 13 351 311 284 356 318 304 272 246 240 232 227 225 220 215 217 216 215 221
137 128 120 118 109 101 105 119 124 116 97 95 56 59 81 114 123 136 133 127 104 78 38 36 51 42 336 42 110 34 334 332 319 275 253 231 233 226 222 222 218 217 219
144 142 136 131 120 111 105 85 68 56 46 37 24 5 337 13 93 140 155 145 126 114 91 47 80 95 357 337 91 139 152 264 305 315 308 279 257 236 234 230 224 225 224
155 144 135 131 125 117 108 98 99 101 94 63 314 337 338 351 351 348 150 146 132 119 107 24 101 111 117 324 327 280 193 190 215 305 315 314 310 271 251 245 237 229 228
153 141 138 133 128 120 112 113 109 105 117 71 36 28 15 8 14 37 76 97 101 104 114 53 50 70 156 187 228 272 292 258 198 204 288 313 320 300 276 253 245 237 230
148 141 138 133 131 127 120 119 120 118 105 78 57 44 25 14 19 33 59 60 62 48 336 290 268 265 248 235 230 216 204 220 230 213 248 278 289 289 285 264 249 244 240